Home > Weather > Blenheim > Past weeks

Flag for New Zealand Weather for the Past 2 Weeks in Blenheim, New Zealand

Now
68 °F

Scattered clouds.


Feels Like: 68 °F
Forecast: 51 / 82 °F
Wind: 12 mph from Southwest

Location: Wellington Airport

Current Time: Feb 13, 2016 at 4:51:45 PM

Latest Report: Feb 13, 2016 at 4:00 PM


Visibility: N/A

Pressure: 30.09 "Hg

Humidity: 73%

Dew point: 59 °F

Location of BlenheimLocation

Historic Weather in Blenheim — Graph

°F

Blenheim Temperature Yesterday

Maximum temperature yesterday: 75 °F (at 1:00 PM)
Minimum temperature yesterday: 64 °F (at 12:00 AM)
Average temperature yesterday: 68 °F

High & Low Weather Summary for the Past Weeks

 TemperatureHumidityPressure
High79 °F (Feb 1, 3:00 PM)100% (Feb 3, 3:00 AM)30.18 "Hg (Feb 3, 3:00 AM)
Low50 °F (Feb 1, 6:30 AM)30% (Feb 11, 4:00 PM)29.65 "Hg (Feb 9, 3:00 PM)
Average66 °F75%29.98 "Hg
* Reported Jan 29 3:00 PM — Feb 13 3:30 PM, Blenheim, Weather by CustomWeather, © 2016

Note: Actual official high and low records may vary slightly from our data, if they occured in-between our weather recording intervals... More about our weather records

Advertising

Blenheim Weather History for the Previous 24 Hours

 ConditionsComfort  
Time TempWeatherWind HumidityBarometerVisibility
3:30 PM
Sat, Feb 13
68 °FMild.13 mph73%30.09 "HgN/A
3:00 PM68 °FMild.14 mph69%30.09 "HgN/A
2:30 PM68 °FMild.12 mph69%30.12 "HgN/A
2:00 PM66 °FMild.12 mph78%30.12 "HgN/A
1:00 PM68 °FMild.10 mph69%30.12 "HgN/A
12:30 PM64 °FMild.8 mph83%30.15 "HgN/A
12:00 PM66 °FMild.8 mph73%30.15 "HgN/A
11:00 AM64 °FScattered clouds.7 mph78%30.15 "HgN/A
10:30 AM64 °FPartly sunny.6 mph78%30.15 "HgN/A
10:00 AM64 °FPartly sunny.3 mph78%30.15 "HgN/A
9:30 AM66 °FOvercast.3 mph73%30.15 "HgN/A
9:00 AM64 °FPartly sunny.3 mph78%30.15 "HgN/A
8:30 AM64 °FPartly sunny.2 mph78%30.15 "HgN/A
8:00 AM63 °FPartly sunny.2 mph83%30.12 "HgN/A
7:30 AM63 °FOvercast.2 mph88%30.12 "HgN/A
7:00 AM63 °FPartly sunny.3 mph83%30.12 "HgN/A
6:30 AM63 °FOvercast.6 mph83%30.09 "HgN/A
6:00 AM64 °FOvercast.6 mph78%30.09 "HgN/A
5:30 AM63 °FPassing clouds.7 mph83%30.09 "HgN/A
5:00 AM63 °FPassing clouds.7 mph83%30.09 "HgN/A
4:30 AM63 °FMild.10 mph83%30.09 "HgN/A
4:00 AM63 °FMild.13 mph83%30.09 "HgN/A
3:30 AM63 °FMild.15 mph83%30.09 "HgN/A
3:00 AM63 °FPassing clouds.14 mph83%30.07 "HgN/A
2:30 AM63 °FMild.15 mph83%30.09 "HgN/A
2:00 AM64 °FMild.15 mph78%30.09 "HgN/A
1:30 AM64 °FPassing clouds.16 mph78%30.09 "HgN/A
1:00 AM64 °FMild.16 mph78%30.09 "HgN/A
12:30 AM64 °FPassing clouds.16 mph78%30.09 "HgN/A
12:00 AM64 °FPassing clouds.16 mph78%30.07 "HgN/A
11:30 PM
Fri, Feb 12
64 °FPassing clouds.14 mph83%30.07 "HgN/A
11:00 PM64 °FPassing clouds.13 mph83%30.07 "HgN/A
10:30 PM64 °FMild.14 mph83%30.07 "HgN/A
10:00 PM64 °FMild.17 mph83%30.07 "HgN/A
9:30 PM64 °FMild.17 mph83%30.07 "HgN/A
9:00 PM66 °FMild.14 mph78%30.07 "HgN/A
8:30 PM66 °FMild.15 mph73%30.04 "HgN/A
8:00 PM68 °FMild.16 mph69%30.04 "HgN/A
7:30 PM68 °FMild.16 mph69%30.04 "HgN/A
7:00 PM70 °FMild.17 mph64%30.04 "HgN/A
6:30 PM70 °FMild.18 mph64%30.04 "HgN/A
6:00 PM72 °FMild.20 mph61%30.04 "HgN/A
5:30 PM73 °FMild.20 mph57%30.04 "HgN/A
5:00 PM73 °FMild.20 mph57%30.04 "HgN/A
4:30 PM73 °FMild.20 mph57%30.04 "HgN/A
4:00 PM75 °FMild.20 mph50%30.04 "HgN/A
Weather by CustomWeather, © 2016

See weather overviewHow to use our weather pages